Location: Unspecified
(49.8670°N, 0.0000°E)
Time: 03:20:03
(UTC+00:00)

Vanguard 1 - Pass Details

Date: 20 June 2019
Orbit: 653 x 3830 km, 34.3° (Epoch: 20 July)

Event Time Altitude Azimuth Distance (km) Brightness Sun altitude
Rises 00:23:49 0° 189° (S) 7,742 - -16.5°
Reaches altitude 10° 00:33:59 10° 167° (SSE) 6,171 - -16.3°
Exits shadow 00:36:16 12° 161° (SSE) 5,866 13.5 -16.3°
Maximum altitude 00:40:42 13° 146° (SE) 5,383 13.4 -16.2°
Drops below altitude 10° 00:46:24 10° 124° (ESE) 5,101 13.5 -16.0°
Sets 00:52:45 0° 99° (E) 5,405 13.9 -15.8°
